Regional Weather Roundup
Issued by NWS

Home | Current Version | Previous Version | Graphics & Text | Print | Product List | Glossary On
Versions: 1 2 3 4 5 6 7 8 9 10 11 12 13 14 15 16 17 18 19 20 21 22 23 24 25 26 27 28 29 30 31 32 33 34 35 36 37 38 39 40 41 42 43 44 45 46 47 48 49 50
730
ASUS43 KFSD 241510
RWRSD

WEATHER ROUNDUP FOR SOUTH DAKOTA
NATIONAL WEATHER SERVICE SIOUX FALLS SD
900 AM CST SAT FEB 24 2018

NOTE: "FAIR" INDICATES FEW OR NO CLOUDS BELOW 12,000 FEET WITH NO
SIGNIFICANT WEATHER AND/OR OBSTRUCTIONS TO VISIBILITY.


SDZ001>005-009-010-012>017-241600-
NORTHWEST AND NORTH CENTRAL SOUTH DAKOTA

CITY           SKY/WX    TMP DP  RH WIND       PRES   REMARKS
BUFFALO          N/A      8   5  87 NW7       29.68S WCI  -3
FAITH            N/A      7   6  96 S3        29.79F
MOBRIDGE       CLOUDY    14   9  80 SE15      29.85F WCI  -1
$$

SDZ012>016-024>037-041>051-057-063-072>074-241600-
SOUTHWEST AND SOUTH CENTRAL SOUTH DAKOTA

CITY           SKY/WX    TMP DP  RH WIND       PRES   REMARKS
RAPID CTY ARPT PTSUNNY   12   7  80 NW3       29.73S
PIERRE         LGT SNOW  11   9  92 SE12      29.88F VSB 3/4 WCI  -3
CUSTER         MOSUNNY   14   8  77 W8        29.63S WCI   3
ELLSWORTH AFB  PTSUNNY   11   7  82 N20       29.73R WCI  -7
PHILIP         LGT SNOW  16  15  96 E8        29.80F VSB 3/4 WCI   5
PINE RIDGE     PTSUNNY   24  20  84 W12       29.75S WCI  13
SPEARFISH        N/A     19  10  68 W10       29.75R WCI   8
WINNER         SNOW      18  14  84 E13       29.87F VSB 1/2 WCI   5
$$

SDZ004>011-016>023-039-040-241600-
NORTHEAST SOUTH DAKOTA

CITY           SKY/WX    TMP DP  RH WIND       PRES   REMARKS
ABERDEEN       CLOUDY     4   0  83 SE3       30.01F FOG
WATERTOWN      CLOUDY     7   5  91 S3        29.98F
BROOKINGS      FLURRIES  12  10  92 S5        30.01F WCI   4
SISSETON         N/A      3   0  87 E7        30.03F WCI  -9
$$

SDZ017-020-022-023-036>040-048>070-241600-
SOUTHEAST SOUTH DAKOTA

CITY           SKY/WX    TMP DP  RH WIND       PRES   REMARKS
SIOUX FALLS    LGT SNOW  16  13  88 E5        30.00F VSB 1   WCI   9
HURON          SNOW       6   4  91 CALM      30.02F VSB 1/4
CHAMBERLAIN    LGT SNOW  13  12  95 E9        29.92F VSB 3/4 WCI   1
MITCHELL       LGT SNOW   9   7  92 CALM      30.02F FOG
YANKTON        SNOW      18  16  92 NE10      29.99  VSB 1/2 WCI   6
$$

ABBREVIATIONS USED IN REMARKS
   TC - TEMPERATURE IN CELSIUS
  WCI - WIND CHILL INDEX
   HX - HEAT INDEX
  VSB - VISIBILITY





USA.gov is the U.S. government's official web portal to all federal, state and local government web resources and services.